Zurück zum Katalog

THORAD AGENA D DEB

AktivSSO
NORAD 5690·DEBRIS·🇺🇸 United States

Gestartet Apr 8, 1970 von Vandenberg Space Force Base

Loading…

Nächste Überflüge (nächste 24 Stunden)

TLE

AktuellSource: Space-Track

Epoche: Sep 14, 2026, 12:45 UTC

1 05690U 70025LV  26257.53187574  .00000037  00000-0  12839-3 0  9992
2 05690 100.1913 275.2004 0048535 218.6876 295.9083 13.51641499778450

Verfolge THORAD AGENA D DEB in Echtzeit mit AllMySat

Download on the App Store